カタログに戻る

STARLINK-30067

運用中通信VLEO
NORAD 56693·PAYLOAD·🇺🇸 United States

打ち上げ May 19, 2023 から Cape Canaveral Space Force Station

Loading…

次のパス (今後24時間)

TLE

最新Source: CelesTrak SupGP

元期: Sep 14, 2026, 21:05 UTC

1 56693C 23067F   26257.87895833 -.00007943  00000+0 -28771-3 0  2579
2 56693  43.0021 292.8714 0001592 262.9403  99.9614 15.27581975    16

AllMySatでSTARLINK-30067をリアルタイム追跡

Download on the App Store